Location: Brno
(49.2000°N, 16.6330°E)
Time: 03:42:07
(UTC+02:00)

Cosmos 1603 - Visible Passes

Search period start: 01 August 2014 00:00
Search period end: 11 August 2014 00:00
Orbit: 832 x 860 km, 71.0° (Epoch: 30 July)

Date Brightness Start Highest point End Pass type
(mag) Time Alt. Az. Time Alt. Az. Time Alt. Az.
01 Aug 4.6 00:28:46 10° NW 00:33:54 36° WSW 00:35:08 32° SW visible
01 Aug 4.4 22:30:36 10° NNW 22:36:03 44° NE 22:39:37 21° ESE visible
02 Aug 4.6 00:14:56 10° NW 00:20:07 37° WSW 00:21:30 32° SW visible
02 Aug 4.4 22:16:48 10° NNW 22:22:15 43° NE 22:26:01 19° ESE visible
03 Aug 4.6 00:01:07 10° NW 00:06:20 38° WSW 00:07:54 32° SW visible
03 Aug 4.5 22:03:00 10° NNW 22:08:26 43° NE 22:12:27 17° ESE visible
03 Aug 4.6 23:47:18 10° NW 23:52:32 39° WSW 23:54:20 31° SW visible
04 Aug 4.5 21:49:13 10° NNW 21:54:37 42° NE 21:58:55 16° ESE visible
04 Aug 4.6 23:33:28 10° NW 23:38:45 40° WSW 23:40:48 30° SSW visible
05 Aug 4.5 21:35:25 10° NNW 21:40:48 41° NE 21:45:25 14° ESE visible
05 Aug 4.5 23:19:39 10° NW 23:24:58 41° WSW 23:27:18 28° SSW visible
06 Aug 4.5 21:21:37 10° NNW 21:26:59 40° NE 21:31:57 12° ESE visible
06 Aug 4.5 23:05:50 10° NW 23:11:11 42° WSW 23:13:51 26° SSW visible
07 Aug 4.5 21:07:50 10° NNW 21:13:11 39° NE 21:18:31 10° ESE visible
07 Aug 4.5 22:52:01 10° NW 22:57:23 43° WSW 23:00:25 24° SSW visible
08 Aug 4.5 20:54:02 10° NNW 20:59:22 38° NE 21:04:41 10° ESE visible
08 Aug 4.5 22:38:12 10° NW 22:43:36 44° WSW 22:47:02 21° S visible
09 Aug 4.5 22:24:23 10° NW 22:29:49 45° WSW 22:33:41 19° S visible
10 Aug 4.5 22:10:34 10° NW 22:16:01 47° WSW 22:20:23 16° S visible
